Language selection

Features

My Weather Profile Weather Topics  | 

James Bay - southern half: Past 24 Hour Conditions

 

Arviat Airport

12:00 AM CST 12 December 2019
Disclaimer

This table is a summary of hourly weather conditions for the past 24 hours.
Please note that these observations might not always be representative of weather conditions over their associated marine area.

Date / Time
(CST)
Wind(knots) Conditions Visibility(km) Pressure(kPa) Air tempC) Relative humidity(%) Dew pointC) Wind Chill
12 December 2019
0:00 NW 16 Clear 16 101.4 -23 79 -26 -37
11 December 2019
23:00 NNW 15 Partly Cloudy 15 101.3 -23 79 -25 -36
22:00 NNW 17 Mist 10 101.3 -22 80 -25 -36
21:00 NNW 18 Mist 8 101.3 -23 80 -25 -37
20:00 NW 14 gust 19 Clear 16 101.3 -24 78 -27 -37
19:00 NW 14 Clear 16 101.3 -25 78 -27 -38
18:00 NW 12 Clear 16 101.3 -25 77 -28 -38
17:00 NW 13 Ice Crystals 24 101.3 -26 76 -29 -39
16:00 NW 12 Ice Crystals 24 101.3 -25 76 -29 -38
15:00 NW 12 Ice Crystals 24 101.3 -25 76 -29 -38
14:00 NNW 17 Ice Crystals 24 101.2 -26 76 -29 -40
13:00 NW 17 gust 24 Ice Crystals 5 101.2 -26 76 -29 -40
12:00 NNW 15 Blowing Snow 8 101.2 -26 76 -29 -40
11:00 NNW 17 Blowing Snow 2 101.2 -27 76 -30 -42
10:00 NNW 18 gust 27 Blowing Snow 0.8 101.2 -27 77 -30 -42
9:00 NNW 18 gust 23 Blowing Snow 1 101.2 -27 76 -30 -42
8:00 NNW 21 gust 28 Blowing Snow 1 101.2 -27 77 -30 -43
7:00 NNW 25 gust 31 Blowing Snow 0.8 101.2 -28 77 -31 -45
6:00 NNW 26 Blowing Snow 0.8 101.2 -26 78 -28 -43
5:00 NNW 19 gust 31 Blowing Snow 0.8 101.2 -25 79 -28 -40
4:00 NNW 27 gust 34 Blowing Snow 0.6 101.1 -25 79 -28 -42
3:00 N 28 gust 35 Blowing Snow 0.6 101.1 -26 78 -29 -44
2:00 NNW 30 gust 36 Blowing Snow 0.6 101.1 -25 78 -28 -43
1:00 NNW 29 gust 35 Blowing Snow 0.6 101.0 -25 78 -28 -43
0:00 N 29 gust 35 Blowing Snow 0.6 101.0 -25 79 -28 -43

Zoom-in to make a selection

Map of Hudson - Hudson Bay marine weather areas Arviat Airport Baker Lake Airport Chesterfield Inlet Airport Coral Harbour Airport Rankin Inlet Airport Sanikiluaq Airport Whale Cove Airport Cape Dorset Airport Iqaluit Airport Wager Bay Kimmirut Airport Churchill Airport Fort Severn Airport Peawanuck Airport Moosonee Airport Eastmain Airport La Grande Rivière Airport Waskaganish Airport Wemindji Airport Akulivik Airport Inukjuak Airport Ivujivik Airport Kuujjuarapik Airport Puvirnituq Airport Umiujaq Airport Aupaluk Airport Kangiqsujuaq Airport Kangirsuk Airport Kangiqsualujjuaq Airport Kuujjuaq Airport Quaqtaq Airport Salluit Airport Tasiujaq Airport Cape Kakkiviak
Legend:
buoy Buoy
land station Land Station

Hudson - Hudson Bay Area

Another Region

What we are doing

Date modified: